Regional Weather Roundup
Issued by NWS

Home | Current Version | Previous Version | Graphics & Text | Print | Product List | Glossary On
Versions: 1 2 3 4 5 6 7 8 9 10 11 12 13 14 15 16 17 18 19 20 21 22 23 24 25 26 27 28 29 30 31 32 33 34 35 36 37 38 39 40 41 42 43 44 45 46 47 48 49 50
195
ASUS45 KBOU 230207
RWRCO

WEATHER ROUNDUP FOR COLORADO
NATIONAL WEATHER SERVICE DENVER/BOULDER CO
800 PM MDT WED MAR 22 2017

NOTE: "FAIR" INDICATES FEW OR NO CLOUDS BELOW 12000 FEET WITH NO
SIGNIFICANT WEATHER AND/OR OBSTRUCTIONS TO VISIBILITY.

COZ001>005-013-030-031-230300-
...NORTHWEST COLORADO...

CITY           SKY/WX    TMP DP  RH WIND       PRES   REMARKS
CRAIG          FAIR      56  27  32 SW17G30   29.90S
HAYDEN         FAIR      54  25  32 SW10      29.91F
MEEKER         FAIR      51  34  52 S21G33    29.92R
MOUNT WERNER   NOT AVBL
STEAMBOAT SPGS CLOUDY    51  29  42 SE8       29.93F
WALDEN         NOT AVBL
$$

COZ006>008-011-230300-
...WEST CENTRAL VALLEYS...

CITY           SKY/WX    TMP DP  RH WIND       PRES   REMARKS
GRAND JUNCTION CLOUDY    62  26  25 SE6       29.79F
MONTROSE       FAIR      57  28  33 E7        29.88F
EAGLE          CLOUDY    55  28  35 W5        29.97F
RIFLE          CLOUDY    55  36  48 SE15      29.88F
DELTA          FAIR      61  28  29 N7        29.85S
NUCLA          FAIR      59  21  23 SE5       29.90F
$$

COZ017>023-064>068-230300-
...SOUTHWEST COLORADO...

CITY           SKY/WX    TMP DP  RH WIND       PRES   REMARKS
DURANGO        FAIR      54  25  32 E8        29.95F
CORTEZ         FAIR      58  23  26 VRB3      29.88F
PAGOSA SPRINGS CLOUDY    50  35  58 N3        30.04S
TELLURIDE      MOCLDY    51  15  24 S8        30.05F
WOLF CREEK PAS NOT AVBL
$$

COZ009-010-012-014-032>034-037-058>063-230300-
...CENTRAL COLORADO...

CITY           SKY/WX    TMP DP  RH WIND       PRES   REMARKS
ASPEN          FAIR      48  28  46 S6        29.98F
BUENA VISTA    FAIR      56  11  16 S13G25    30.00S
COPPER MTN     FAIR      39  18  41 S12       30.20S
BERTHOUD PASS  FAIR      32  23  69 S10G23    30.21S WCI  24
COTTONWOOD PAS FAIR      50   9  18 SW9G26    30.10S
GUNNISON       FAIR      43  30  60 CALM      30.02S
KREMMLING      FAIR      54  27  35 W10       29.98S
LEADVILLE      FAIR      41  18  39 SE7       30.08S
MONARCH PASS   FAIR      36  10  35 SW25G36   30.32R
SALIDA         FAIR      60   8  12 SW8       30.08R
SUNLIGHT       MOCLDY    32  27  80 CALM      30.13F
WILKERSON PASS MOCLDY    43   9  24 SW17G24   30.19S
$$

COZ069>075-230300-
...SAN LUIS VALLEY/SANGRE DE CRISTO MOUNTAINS...

CITY           SKY/WX    TMP DP  RH WIND       PRES   REMARKS
ALAMOSA        FAIR      53  23  31 SW5       30.00S
LA VETA PASS   NOT AVBL
SAGUACHE       FAIR      50  12  22 NW9       30.03F
$$

COZ035-036-038>040-230300-
...NORTHERN COLORADO FRONT RANGE...

CITY           SKY/WX    TMP DP  RH WIND       PRES   REMARKS
DENVER INTL AP MOCLDY    61  33  35 W6        29.84S
DMNS CITY PARK   N/A     60  33  36 E8        29.85R
AURORA         MOCLDY    61  31  32 S14       29.86F
FRONT RANGE AP MOCLDY    63  30  29 S9        29.86R
ERIE MUNI ARPT FAIR      57  32  38 S5        29.83R
BOULDER MUN AP FAIR      63  32  31 CALM      29.83S
CENTENNIAL     CLOUDY    59  30  33 S13       29.87S
BROOMFIELD     CLOUDY    59  32  36 W5        29.85F
FORT COLLINS   FAIR      61  35  37 N6        29.82F
LONGMONT       FAIR      63  35  34 SW7       29.85R
$$

COZ041-046-047-076>085-087-088-230300-
...PIKES PEAK/PALMER DIVIDE AND SOUTHERN FOOTHILLS...

CITY           SKY/WX    TMP DP  RH WIND       PRES   REMARKS
COLO. SPRINGS  MOCLDY    54  30  40 E7        29.95S
A. F. ACADEMY  FAIR      55  30  39 CALM      29.95S
SCHRIEVER AFB  FAIR      51  36  54 W6        29.95S
ELLICOTT         N/A    N/A N/A N/A E13       29.92F
FALCON         FAIR      50  32  50 S10       29.98S
FORT CARSON    PTCLDY    59  31  34 S6        29.92F
LIMON          FAIR      56  40  55 SE17      29.90S
MONUMENT HILL  FAIR      50  32  50 S15       29.98R
TRINIDAD       FAIR      68  34  28 S28G35    29.90R
$$

COZ042>045-048>051-090-091-230300-
...NORTHEAST COLORADO...

CITY           SKY/WX    TMP DP  RH WIND       PRES   REMARKS
GREELEY ARPT   FAIR      66  35  31 SE6       29.81S
AKRON          FAIR      57  37  47 SE18      29.88S
BURLINGTON     FAIR      55  39  54 S26G32    29.89F
WRAY           FAIR      54  37  54 SE17      29.91S
STERLING       FAIR      59  37  44 S15G21    29.83F
HOLYOKE        FAIR      54  37  54 SE16      29.91S
FORT MORGAN    FAIR      62  34  35 SE21G26   29.83S
$$

COZ086-089-092>099-230300-
...SOUTHEAST COLORADO...

CITY           SKY/WX    TMP DP  RH WIND       PRES   REMARKS
PUEBLO         FAIR      57  33  40 N5        29.85S
LA JUNTA       FAIR      66  39  37 SW8       29.82R
LAMAR          FAIR      65  42  43 E12G25    29.86R
SPRINGFIELD      N/A     59  43  55 S23G31    29.92R
$$




USA.gov is the U.S. government's official web portal to all federal, state and local government web resources and services.